• Join FlightAware (Why Join?)
  • Login
  • US Flag 
12:57AM EDT


 

Airport Tracker/Info


-or-


 

Live Flight TrackerFlight Track Log ✈ TAM3422 ✈ 21-Sep-2013 ✈ SBCF / CNF - SBPS

Flight Track Log - Related Links

Times and Time Zones

All times are in EDT time to prevent confusion due to time zone crossing. See the TAM3422 flight status page for this flight to view local times or setup timezone preferences in your user account.

Time Position Orientation Groundspeed Altitude Reporting Facility
EDT Latitude Longitude Course Direction KTS MPH feet Rate Location/Type
02:14PM -19.6320 -42.1010 North  Level FlightAware
02:15PM -19.6320 -42.0030 90° East 360 Level FlightAware
02:15PM -19.6320 -42.1020 270° West 360 Level FlightAware
02:15PM -19.6320 -42.0040 90° East 952 1096 360 Level FlightAware
02:17PM -19.6320 -42.0050 90° East 408 470 420 Level FlightAware
02:17PM -19.6320 -42.0050 90° East 952 1096 480 Level FlightAware
02:18PM -19.6320 -42.0050 90° East 740 852 540 Level FlightAware
02:19PM -19.6360 -42.0980 269° West 971 1117 600 Level FlightAware
02:20PM -19.6390 -41.9930 90° East 840 Level FlightAware
02:20PM -19.6400 -41.9910 118° Southeast 1,200 Level FlightAware
02:22PM -19.6440 -42.0860 269° West 1,260 Level FlightAware
02:22PM -19.6410 -42.0930 289° West 93 107 2,640 Level FlightAware
02:22PM -19.6350 -42.1090 292° West 234 269 4,500 Level FlightAware
02:23PM -19.6270 -42.1310 291° West 253 291 7,140 Level FlightAware
02:23PM -19.6200 -43.9810 270° West 178 205 3,100 7,380 Climbing FlightAware
02:23PM -19.6080 -43.9920 319° Northwest 184 212 3,700 1,500 Climbing FlightAware
02:23PM -19.5970 -44.0010 322° Northwest 199 229 4,000 1,020 Climbing FlightAware
02:24PM -19.5840 -44.0160 313° West 218 251 4,300 900 Climbing FlightAware
02:24PM -19.5690 -44.0320 315° West 245 282 4,600 1,800 Climbing FlightAware
02:24PM -19.5510 -44.0470 322° Northwest 246 283 5,500 2,880 Climbing FlightAware
02:24PM -19.5390 -44.0490 351° North 240 276 6,100 3,000 Climbing FlightAware
02:25PM -19.5180 -44.0390 24° Northeast 238 274 7,100 2,760 Climbing FlightAware
02:25PM -19.5150 -44.0360 43° Northeast 242 278 7,300 1,860 Climbing FlightAware
02:25PM -19.5100 -44.0280 56° Northeast 249 287 7,600 1,800 Climbing FlightAware
02:25PM -19.5060 -44.0150 72° East 254 292 7,900 1,440 Climbing FlightAware
02:26PM -19.5020 -43.9890 81° East 277 319 8,300 1,560 Climbing FlightAware
02:26PM -19.4960 -43.9520 80° East 292 336 9,100 2,100 Climbing FlightAware
02:26PM -19.4920 -43.9280 80° East 295 339 9,900 1,560 Climbing FlightAware
02:27PM -19.4830 -43.8730 80° East 327 376 10,600 1,020 Climbing FlightAware
02:27PM -19.4710 -43.8150 78° East 357 411 11,100 1,500 Climbing FlightAware
02:28PM -19.4600 -43.7550 79° East 367 422 12,300 1,980 Climbing FlightAware
02:29PM -19.4480 -43.6920 79° East 376 433 13,500 1,980 Climbing FlightAware
02:29PM -19.4340 -43.6190 79° East 383 441 14,800 1,980 Climbing FlightAware
02:30PM -19.4240 -43.5630 79° East 388 447 15,800 1,980 Climbing FlightAware
02:30PM -19.4120 -43.4980 79° East 389 448 17,000 1,800 Climbing FlightAware
02:31PM -19.3930 -43.4240 75° East 396 456 18,100 1,500 Climbing FlightAware
02:32PM -19.3720 -43.3700 68° East 401 461 18,800 1,440 Climbing FlightAware
02:32PM -19.3470 -43.3060 68° East 407 468 19,700 1,500 Climbing FlightAware
02:33PM -19.3210 -43.2410 67° East 411 473 20,600 1,440 Climbing FlightAware
02:33PM -19.2920 -43.1660 68° East 417 480 21,500 1,380 Climbing FlightAware
02:34PM -19.2700 -43.1090 68° East 421 484 22,200 1,200 Climbing FlightAware
02:34PM -19.2430 -43.0420 67° East 429 494 22,800 1,080 Climbing FlightAware
02:35PM -19.2130 -42.9640 68° East 435 501 23,600 1,140 Climbing FlightAware
02:36PM -19.1860 -42.8940 68° East 440 506 24,300 1,260 Climbing FlightAware
02:36PM -19.1580 -42.8250 67° East 442 509 25,100 1,260 Climbing FlightAware
02:37PM -19.1310 -42.7550 68° East 447 514 25,800 1,200 Climbing FlightAware
02:37PM -19.1030 -42.6840 67° East 449 517 26,500 1,140 Climbing FlightAware
02:38PM -19.0750 -42.6130 67° East 452 520 27,200 900 Climbing FlightAware
02:39PM -19.0420 -42.5300 67° East 460 529 27,700 840 Climbing FlightAware
02:39PM -19.0140 -42.4570 68° East 465 535 28,300 960 Climbing FlightAware
02:40PM -18.9850 -42.3850 67° East 469 540 28,800 1,080 Climbing FlightAware
02:40PM -18.9550 -42.3100 67° East 468 539 29,600 1,260 Climbing FlightAware
02:41PM -18.9260 -42.2370 67° East 466 536 30,300 1,320 Climbing FlightAware
02:42PM -18.8930 -42.1530 67° East 462 532 31,300 1,260 Climbing FlightAware
02:42PM -18.8670 -42.0870 67° East 461 531 31,900 1,020 Climbing FlightAware
02:43PM -18.8340 -42.0060 67° East 462 532 32,500 900 Climbing FlightAware
02:44PM -18.8050 -41.9330 67° East 449 517 33,000 420 Climbing FlightAware
02:44PM -18.7800 -41.8700 67° East 447 514 33,000  Level FlightAware
02:45PM -18.7530 -41.8030 67° East 448 516 33,000  Level FlightAware
02:45PM -18.7230 -41.7290 67° East 448 516 33,000  Level FlightAware
02:46PM -18.6900 -41.6470 67° East 448 516 33,000  Level FlightAware
02:46PM -18.6610 -41.5750 67° East 449 517 33,000  Level FlightAware
02:47PM -18.6370 -41.5150 67° East 449 517 33,000  Level FlightAware
02:48PM -18.6060 -41.4370 67° East 447 514 33,000  Level FlightAware
02:48PM -18.5780 -41.3670 67° East 445 512 33,000  Level FlightAware
02:49PM -18.5530 -41.3050 67° East 445 512 33,000  Level FlightAware
02:49PM -18.5250 -41.2370 67° East 445 512 33,000  Level FlightAware
02:50PM -18.4980 -41.1710 67° East 445 512 33,000  Level FlightAware
02:51PM -18.4620 -41.0810 67° East 445 512 33,000  Level FlightAware
02:51PM -18.4380 -41.0220 67° East 447 514 33,000  Level FlightAware
02:52PM -18.4050 -40.9410 67° East 447 514 33,000  Level FlightAware
02:52PM -18.3810 -40.8810 67° East 447 514 33,000  Level FlightAware
02:53PM -18.3490 -40.8020 67° East 448 516 33,000  Level FlightAware
02:54PM -18.3160 -40.7210 67° East 449 517 33,000  Level FlightAware
02:54PM -18.2950 -40.6690 67° East 449 517 33,000  Level FlightAware
02:55PM -18.2690 -40.6060 67° East 449 517 33,000  Level FlightAware
02:55PM -18.2680 -40.6060 360° North 327 376 33,000  Level FlightAware
02:58PM -18.1266 -40.4867 39° Northeast  Level Estimated
02:58PM -18.1560 -40.3330 39° Northeast 451 519 33,000  Level FlightAware
02:58PM -18.1290 -40.2680 66° East 451 519 33,000  Level FlightAware
02:58PM -18.1010 -40.2250 56° Northeast 457 526 33,000  Level FlightAware
02:59PM -18.0810 -40.2060 42° Northeast 461 531 33,000  Level FlightAware
02:59PM -18.0220 -40.1640 34° Northeast 461 531 33,000 -840 Level FlightAware
03:00PM -17.9370 -40.1050 33° Northeast 459 528 32,000 -960 Descending FlightAware
03:00PM -17.8940 -40.0780 31° Northeast 466 536 31,900 -120 Descending FlightAware
03:01PM -17.8380 -40.0420 31° Northeast 466 536 31,900 -4,380 Level FlightAware
03:01PM -17.7670 -40.0000 29° Northeast 470 541 27,000 -4,320 Descending FlightAware
03:02PM -17.7070 -39.9640 30° Northeast 470 541 27,000  Level FlightAware
03:03PM -17.6500 -39.9290 30° Northeast 470 541 27,000  Level FlightAware
03:03PM -17.5920 -39.8940 30° Northeast 470 541 27,000 -4,080 Level FlightAware
03:04PM -17.5330 -39.8540 33° Northeast 410 472 21,900 -7,680 Descending FlightAware
03:07PM -17.3641 -39.7340 34° Northeast  Level Estimated
03:08PM -17.2974 -39.6866 34° Northeast  Level Estimated
03:09PM -17.2307 -39.6394 34° Northeast  Level Estimated
03:10PM -17.1640 -39.5921 34° Northeast  Level Estimated
03:11PM -17.0973 -39.5449 34° Northeast  Level Estimated
03:12PM -17.0306 -39.4977 34° Northeast  Level Estimated
03:13PM -16.9638 -39.4505 34° Northeast  Level Estimated
03:14PM -16.8971 -39.4034 34° Northeast  Level Estimated
03:15PM -16.8303 -39.3563 34° Northeast  Level Estimated
03:16PM -16.7635 -39.3093 34° Northeast  Level Estimated
03:17PM -16.6967 -39.2622 34° Northeast  Level Estimated
03:18PM -16.6299 -39.2153 34° Northeast  Level Estimated
03:19PM -16.5631 -39.1683 34° Northeast  Level Estimated
03:20PM -16.4963 -39.1214 34° Northeast  Level Estimated
03:21PM -16.4386 -39.0809 34° Northeast  Level Estimated
03:22PM -16.4386 -39.0809 71° East  Level Estimated
03:23PM -16.4386 -39.0809 71° East  Level Estimated
03:24PM -16.4386 -39.0809 71° East  Level Estimated
03:25PM -16.4386 -39.0809 71° East  Level Estimated
03:26PM -16.4386 -39.0809 71° East  Level Estimated
03:27PM -16.4386 -39.0809 71° East  Level Estimated
03:28PM -16.4386 -39.0809 71° East  Level Estimated
03:29PM -16.4386 -39.0809 71° East  Level Estimated
03:30PM -16.4386 -39.0809 71° East  Level Estimated
03:31PM -16.4386 -39.0809 71° East  Level Estimated
03:32PM -16.4386 -39.0809 71° East  Level Estimated
03:33PM -16.4386 -39.0809 71° East  Level Estimated
03:34PM -16.4386 -39.0809 71° East  Level Estimated
03:35PM -16.4386 -39.0809 71° East  Level Estimated
03:36PM -16.4386 -39.0809 71° East  Level Estimated
03:37PM -16.4386 -39.0809 71° East  Level Estimated
03:38PM -16.4386 -39.0809 71° East  Level Estimated
03:39PM -16.4386 -39.0809 71° East  Level Estimated
03:40PM -16.4386 -39.0809 71° East  Level Estimated
03:41PM -16.4386 -39.0809 71° East  Level Estimated
03:42PM -16.4386 -39.0809 71° East  Level Estimated
03:43PM -16.4386 -39.0809 71° East  Level Estimated
03:44PM -16.4386 -39.0809 71° East  Level Estimated
03:45PM -16.4386 -39.0809 71° East  Level Estimated
03:46PM -16.4386 -39.0809 71° East  Level Estimated
03:47PM -16.4386 -39.0809 71° East  Level Estimated
03:48PM -16.4386 -39.0809 71° East  Level Estimated